Regional Weather Roundup
Issued by NWS

Home | Current Version | Previous Version | Graphics & Text | Print | Product List | Glossary On
Versions: 1 2 3 4 5 6 7 8 9 10 11 12 13 14 15 16 17 18 19 20 21 22 23 24 25 26 27 28 29 30 31 32 33 34 35 36 37 38 39 40 41 42 43 44 45 46 47 48 49 50
000
ASUS43 KFSD 300610
RWRSD

WEATHER ROUNDUP FOR SOUTH DAKOTA
NATIONAL WEATHER SERVICE SIOUX FALLS SD
100 AM CDT SAT JUL 30 2016

NOTE: "FAIR" INDICATES FEW OR NO CLOUDS BELOW 12,000 FEET WITH NO
SIGNIFICANT WEATHER AND/OR OBSTRUCTIONS TO VISIBILITY.


SDZ001>005-009-010-012>017-300700-
NORTHWEST AND NORTH CENTRAL SOUTH DAKOTA

CITY           SKY/WX    TMP DP  RH WIND       PRES   REMARKS
BUFFALO          N/A     68  55  63 SE3       29.93F
FAITH            N/A     65  58  78 SE13      29.98S
MOBRIDGE       CLEAR     70  57  63 SE8       29.95F
$$

SDZ012>016-024>037-041>051-057-063-072>074-300700-
SOUTHWEST AND SOUTH CENTRAL SOUTH DAKOTA

CITY           SKY/WX    TMP DP  RH WIND       PRES   REMARKS
RAPID CTY ARPT CLEAR     57  54  89 CALM      30.00F
PIERRE         CLEAR     70  56  61 SE13      29.98S
CUSTER         CLEAR     55  51  86 CALM      30.15F
ELLSWORTH AFB  CLEAR     65  57  74 SW7       29.99F
PHILIP         PTCLDY    70  63  78 S13       29.97F
PINE RIDGE     CLEAR     56  55  97 E7        30.05R
WINNER         FAIR      66  58  75 SE9       30.02S
$$

SDZ004>011-016>023-039-040-300700-
NORTHEAST SOUTH DAKOTA

CITY           SKY/WX    TMP DP  RH WIND       PRES   REMARKS
ABERDEEN       CLOUDY    67  58  72 S9        30.00F
WATERTOWN      PTCLDY    64  56  75 S6        30.06R
BROOKINGS      CLEAR     61  57  87 SE5       30.06S
SISSETON         N/A     65  59  81 S7        30.01F
$$

SDZ017-020-022-023-036>040-048>070-300700-
SOUTHEAST SOUTH DAKOTA

CITY           SKY/WX    TMP DP  RH WIND       PRES   REMARKS
SIOUX FALLS    CLEAR     62  55  77 NE5       30.05F
HURON          CLEAR     66  55  67 SE13      30.02S
CHAMBERLAIN    CLEAR     65  57  76 SE8       30.02S
MITCHELL       CLEAR     64  57  78 SE8       30.03F
YANKTON        CLEAR     63  57  82 E5        30.03S
$$

ABBREVIATIONS USED IN REMARKS
   TC - TEMPERATURE IN CELSIUS
  WCI - WIND CHILL INDEX
   HX - HEAT INDEX
  VSB - VISIBILITY





USA.gov is the U.S. government's official web portal to all federal, state and local government web resources and services.